AMC-3 (GE-3) (24936 NORAD) Tracking and Keplerian Element Data

This shows tracking and keplerian element data for the satellite.

Feedback or suggestion? Click here.




ElementValue
Catalog24936
NameAMC-3 (GE-3)
Epoch Orbit8710
Epoch Day165.15813334
Epoch Year2021
RAAN82.7925
Inclination3.6561
Eccentricity0.000278
Argument of Perigee0.8144
Mean Anonmoly163.9919
Mean Motion1.00272026
Decay Rate-2.52E-06
L11 24936U 97050A 21165.15813334 -.00000252 00000-0 00000+0 0 9997
L22 24936 3.6561 82.7925 0002780 0.8144 163.9919 1.00272026 87108

Live tracking and technical data element details for AMC-3 (GE-3) (NORAD 24936). AMC-3 (GE-3) can be tracked NOW for your location showing map with azimuth and elevation plus other details from your city location.

Track the satellite on the map from your city or location and see movement details for azimuth, elevation, latitude, longitude, range, height, and movement on the map or in text.







IsCatalogInMostPopularTable: catalog: 24936, numindb: 318
Update: records affected: 1



GetName: 24936 AMC-3 (GE-3)

Hit Count: updated at: Tue, 15 Jun 2021 06:23:39 GMT